Flag for Germany Weather past 2 weeks in Worms, Rhineland-Palatinate, Germany

Now
70 °F

Broken clouds.


Feels Like: 70 °F
Forecast: 52 / 72 °F
Wind: 5 mph from West

Location: Baden Wurttemberg - Neuostheim

Current Time: Sep 30, 2014 at 2:20:14 PM

Latest Report: Sep 30, 2014 at 1:50 PM


Visibility: N/A

Pressure: 30.30 "Hg

Humidity: 64%

Dew point: 57 °F

Location of WormsLocation

Historic Weather in Worms — Graph

°F

Worms temperature yesterday

Maximum temperature yesterday: 77 °F (at 2:50 PM)
Minimum temperature yesterday: 57 °F (at 5:50 AM)
Average temperature yesterday: 69 °F

Past Weeks' High & Low Weather Summary

 TemperatureHumidityPressure
High79 °F (Sep 17, 3:20 PM)100% (Sep 16, 4:50 AM)30.36 "Hg (Sep 16, 4:50 AM)
Low41 °F (Sep 23, 6:20 AM)39% (Sep 17, 4:20 PM)29.86 "Hg (Sep 17, 3:20 PM)
Average64 °F72%30.08 "Hg
* Reported Sep 15 12:20 PM — Sep 30 12:50 PM, Worms, Weather by CustomWeather, © 2014

Note: Actual official high and low records may vary slightly from our data, if they occured in-between our weather recording intervals... More about our weather records

Advertising

Worms weather history for previous 24 hours

 ConditionsComfort  
Time TempWeatherWind HumidityBarometerVisibility
12:50 PM
Sep 30
70 °FBroken clouds.5 mph64%30.30 "HgN/A
12:20 PM68 °FScattered clouds.6 mph69%30.30 "HgN/A
11:50 AM66 °FPartly sunny.5 mph73%30.30 "HgN/A
11:20 AM66 °FScattered clouds.3 mph78%30.30 "HgN/A
10:50 AM64 °FBroken clouds.3 mph83%30.30 "HgN/A
10:20 AM64 °FPartly sunny.5 mph83%30.30 "HgN/A
9:50 AM64 °FPartly sunny.5 mph83%30.30 "HgN/A
9:20 AM64 °FPassing clouds.6 mph83%30.27 "HgN/A
8:50 AM64 °FPassing clouds.5 mph78%30.27 "HgN/A
8:20 AM64 °FPassing clouds.3 mph78%30.27 "HgN/A
7:50 AM64 °FClear.3 mph78%30.27 "Hg10 mi
7:20 AM64 °FClear.2 mph78%30.27 "Hg10 mi
6:50 AM64 °FPassing clouds.3 mph78%30.24 "HgN/A
6:20 AM64 °FPartly cloudy.5 mph78%30.24 "HgN/A
5:50 AM64 °FPassing clouds.3 mph78%30.24 "HgN/A
5:20 AM64 °FPartly cloudy.3 mph78%30.24 "HgN/A
10:50 PM
Sep 29
68 °FPartly cloudy.2 mph69%30.24 "HgN/A
10:20 PM70 °FPartly cloudy.3 mph60%30.24 "HgN/A
9:50 PM70 °FClear.2 mph60%30.24 "Hg10 mi
9:20 PM70 °FClear.3 mph64%30.24 "Hg10 mi
8:50 PM72 °FClear.2 mph61%30.24 "Hg10 mi
8:20 PM72 °FClear.3 mph61%30.24 "Hg10 mi
7:50 PM73 °FSunny.3 mph57%30.24 "Hg10 mi
7:20 PM73 °FSunny.3 mph57%30.21 "Hg10 mi
6:50 PM75 °FSunny.3 mph57%30.21 "Hg10 mi
6:20 PM75 °FPassing clouds.5 mph54%30.21 "HgN/A
5:50 PM77 °FPassing clouds.5 mph51%30.21 "HgN/A
5:20 PM75 °FPassing clouds.5 mph54%30.21 "HgN/A
4:50 PM77 °FPassing clouds.6 mph51%30.21 "HgN/A
4:20 PM77 °FPassing clouds.7 mph51%30.21 "HgN/A
3:50 PM77 °FPassing clouds.6 mph51%30.21 "HgN/A
3:20 PM77 °FPassing clouds.7 mph47%30.21 "HgN/A
2:50 PM77 °FPassing clouds.6 mph54%30.21 "HgN/A
2:20 PM75 °FSunny.5 mph54%30.24 "Hg10 mi
Weather by CustomWeather, © 2014

See weather overviewHow to use our weather pages